When you browse on this site, cookies collect data to enhance your experience and personalize the content and advertising you see.
Visit our Privacy Policy to learn more. By continuing to use the site, you agree to this use of cookies and data.
  • In Italy
  • List of Countries
  • For 7 days
  • Water Temperature
  • Satellite Maps
  • Weather Map
  • Weather Widgets
  • user-avatar
    Login

    Hourly Weather Mendoza

    Today, 16 January, Wednesday

    Time Temperature Precipitation Wind Pressure Humidity
    00:00 +26°C° 0 mm 3 mps 697 mmHg 31%
    01:00 +26°C° 0 mm 2 mps 697 mmHg 32%
    02:00 +25°C° 0 mm 2 mps 697 mmHg 32%
    03:00 +24°C° 0 mm 2 mps 697 mmHg 33%
    04:00 +24°C° 0 mm 2 mps 696 mmHg 34%
    05:00 +25°C° 0 mm 2 mps 697 mmHg 32%
    06:00 +26°C° 0 mm 1 mps 697 mmHg 29%
    07:00 +28°C° 0 mm 1 mps 697 mmHg 27%
    08:00 +29°C° 0 mm 2 mps 697 mmHg 25%
    09:00 +30°C° 0 mm 3 mps 697 mmHg 24%
    10:00 +33°C° 0 mm 4 mps 697 mmHg 23%
    11:00 +33°C° 0 mm 3 mps 697 mmHg 22%
    12:00 +34°C° 0 mm 3 mps 696 mmHg 22%
    13:00 +35°C° 0 mm 3 mps 696 mmHg 22%
    14:00 +35°C° 0 mm 3 mps 696 mmHg 22%
    15:00 +35°C° 0 mm 3 mps 696 mmHg 22%
    16:00 +36°C° 0 mm 2 mps 695 mmHg 22%
    17:00 +35°C° 0.2 mm 2 mps 696 mmHg 25%
    18:00 +34°C° 0.2 mm 2 mps 696 mmHg 27%
    19:00 +32°C° 0.2 mm 2 mps 697 mmHg 30%
    20:00 +29°C° 1.4 mm 4 mps 697 mmHg 35%
    21:00 +27°C° 1.4 mm 6 mps 698 mmHg 41%
    22:00 +24°C° 1.4 mm 7 mps 699 mmHg 46%
    23:00 +23°C° 0 mm 8 mps 700 mmHg 46%

    Tomorrow, 17 January, Thursday

    Time Temperature Precipitation Wind Pressure Humidity
    00:00 +22°C° 0 mm 8 mps 700 mmHg 46%
    01:00 +21°C° 0 mm 9 mps 701 mmHg 47%
    02:00 +21°C° 0 mm 8 mps 701 mmHg 50%
    03:00 +20°C° 0 mm 7 mps 701 mmHg 53%
    04:00 +18°C° 0 mm 7 mps 701 mmHg 55%
    05:00 +18°C° 0 mm 7 mps 701 mmHg 55%
    06:00 +18°C° 0 mm 7 mps 702 mmHg 55%
    07:00 +18°C° 0 mm 7 mps 702 mmHg 54%
    08:00 +18°C° 0.1 mm 7 mps 703 mmHg 58%
    09:00 +17°C° 0.1 mm 6 mps 703 mmHg 62%
    10:00 +17°C° 0.1 mm 6 mps 703 mmHg 66%
    11:00 +16°C° 0.8 mm 6 mps 703 mmHg 70%
    12:00 +15°C° 0.8 mm 6 mps 703 mmHg 74%
    13:00 +15°C° 0.8 mm 6 mps 703 mmHg 78%
    14:00 +16°C° 0.2 mm 5 mps 703 mmHg 71%
    15:00 +18°C° 0.2 mm 4 mps 703 mmHg 65%
    16:00 +19°C° 0.2 mm 3 mps 703 mmHg 58%
    17:00 +18°C° 0 mm 2 mps 703 mmHg 58%
    18:00 +18°C° 0 mm 2 mps 703 mmHg 58%
    19:00 +19°C° 0 mm 1 mps 704 mmHg 59%
    20:00 +18°C° 0 mm 1 mps 704 mmHg 62%
    21:00 +17°C° 0 mm 2 mps 704 mmHg 65%
    22:00 +16°C° 0 mm 2 mps 704 mmHg 68%
    23:00 +16°C° 0 mm 2 mps 703 mmHg 71%

    Day after tomorrow, 18 January, Friday

    Time Temperature Precipitation Wind Pressure Humidity
    00:00 +15°C° 0 mm 2 mps 703 mmHg 74%
    01:00 +15°C° 0 mm 1 mps 702 mmHg 77%
    02:00 +14°C° 0 mm 1 mps 702 mmHg 79%
    03:00 +14°C° 0 mm 1 mps 701 mmHg 81%
    04:00 +14°C° 0 mm 1 mps 701 mmHg 82%
    05:00 +14°C° 0 mm 1 mps 701 mmHg 77%
    06:00 +15°C° 0 mm 1 mps 701 mmHg 72%
    07:00 +16°C° 0 mm 1 mps 702 mmHg 67%
    08:00 +19°C° 0 mm 1 mps 701 mmHg 59%
    09:00 +19°C° 0 mm 2 mps 701 mmHg 52%
    10:00 +21°C° 0 mm 2 mps 701 mmHg 45%
    11:00 +23°C° 0 mm 2 mps 701 mmHg 40%
    12:00 +24°C° 0 mm 3 mps 700 mmHg 36%
    13:00 +26°C° 0 mm 3 mps 700 mmHg 32%
    14:00 +26°C° 0 mm 3 mps 699 mmHg 31%
    15:00 +27°C° 0 mm 3 mps 699 mmHg 30%
    16:00 +27°C° 0 mm 3 mps 699 mmHg 29%
    17:00 +26°C° 0 mm 2 mps 699 mmHg 31%
    18:00 +25°C° 0 mm 2 mps 699 mmHg 33%
    19:00 +24°C° 0 mm 1 mps 699 mmHg 36%
    20:00 +24°C° 0 mm 2 mps 700 mmHg 37%
    21:00 +24°C° 0 mm 2 mps 700 mmHg 38%
    22:00 +23°C° 0 mm 2 mps 700 mmHg 39%
    23:00 +23°C° 0 mm 2 mps 700 mmHg 43%

    19 January, Saturday

    Time Temperature Precipitation Wind Pressure Humidity
    00:00 +21°C° 0 mm 2 mps 699 mmHg 47%
    01:00 +21°C° 0 mm 2 mps 699 mmHg 50%
    02:00 +20°C° 0 mm 2 mps 699 mmHg 55%
    03:00 +19°C° 0 mm 2 mps 699 mmHg 60%
    04:00 +19°C° 0 mm 2 mps 698 mmHg 64%
    05:00 +20°C° 0 mm 2 mps 699 mmHg 61%
    06:00 +21°C° 0 mm 2 mps 699 mmHg 58%
    07:00 +23°C° 0 mm 2 mps 700 mmHg 56%
    08:00 +24°C° 0 mm 2 mps 699 mmHg 50%
    09:00 +26°C° 0 mm 2 mps 699 mmHg 44%
    10:00 +27°C° 0 mm 3 mps 699 mmHg 38%
    11:00 +28°C° 0 mm 3 mps 699 mmHg 35%
    12:00 +30°C° 0 mm 3 mps 699 mmHg 33%
    13:00 +32°C° 0 mm 4 mps 698 mmHg 30%
    14:00 +31°C° 0 mm 3 mps 698 mmHg 29%
    15:00 +31°C° 0 mm 3 mps 698 mmHg 29%
    16:00 +33°C° 0 mm 3 mps 697 mmHg 28%
    17:00 +31°C° 0 mm 2 mps 698 mmHg 29%
    18:00 +30°C° 0 mm 2 mps 698 mmHg 31%
    19:00 +29°C° 0 mm 1 mps 698 mmHg 32%
    20:00 +28°C° 0 mm 1 mps 698 mmHg 35%
    21:00 +28°C° 0 mm 1 mps 698 mmHg 37%
    22:00 +25°C° 0 mm 0 mps 698 mmHg 39%
    23:00 +26°C° 0 mm 1 mps 698 mmHg 42%

    20 January, Sunday

    Time Temperature Precipitation Wind Pressure Humidity
    00:00 +26°C° 0 mm 1 mps 698 mmHg 45%
    01:00 +25°C° 0 mm 1 mps 697 mmHg 48%
    02:00 +25°C° 0 mm 1 mps 697 mmHg 51%
    03:00 +24°C° 0 mm 1 mps 697 mmHg 54%
    04:00 +24°C° 0 mm 1 mps 697 mmHg 58%
    05:00 +25°C° 0 mm 1 mps 697 mmHg 54%
    06:00 +26°C° 0 mm 2 mps 698 mmHg 50%
    07:00 +27°C° 0 mm 3 mps 698 mmHg 47%
    08:00 +28°C° 0 mm 3 mps 698 mmHg 43%
    09:00 +30°C° 0 mm 4 mps 697 mmHg 39%
    10:00 +32°C° 0 mm 5 mps 697 mmHg 35%
    11:00 +33°C° 0 mm 5 mps 697 mmHg 34%
    12:00 +34°C° 0 mm 5 mps 696 mmHg 33%
    13:00 +35°C° 0 mm 5 mps 695 mmHg 32%
    14:00 +35°C° 0 mm 4 mps 695 mmHg 31%
    15:00 +35°C° 0 mm 4 mps 695 mmHg 31%
    16:00 +36°C° 0 mm 4 mps 694 mmHg 30%
    17:00 +35°C° 0 mm 3 mps 695 mmHg 32%
    18:00 +34°C° 0 mm 3 mps 695 mmHg 34%
    19:00 +33°C° 0 mm 3 mps 695 mmHg 37%
    20:00 +31°C° 0 mm 3 mps 695 mmHg 40%
    21:00 +31°C° 0 mm 3 mps 696 mmHg 43%
    22:00 +30°C° 0 mm 3 mps 696 mmHg 47%
    23:00 +29°C° 0 mm 3 mps 696 mmHg 50%

    21 January, Monday

    Time Temperature Precipitation Wind Pressure Humidity
    00:00 +28°C° 0 mm 2 mps 695 mmHg 54%
    01:00 +28°C° 0 mm 2 mps 695 mmHg 58%
    02:00 +27°C° 0 mm 2 mps 695 mmHg 60%
    03:00 +26°C° 0 mm 2 mps 695 mmHg 62%
    04:00 +26°C° 0 mm 2 mps 695 mmHg 63%
    05:00 +26°C° 0 mm 2 mps 695 mmHg 61%
    06:00 +27°C° 0 mm 2 mps 696 mmHg 60%
    07:00 +28°C° 0 mm 2 mps 696 mmHg 58%
    08:00 +29°C° 0 mm 2 mps 696 mmHg 53%
    09:00 +31°C° 0 mm 2 mps 697 mmHg 49%
    10:00 +33°C° 0 mm 3 mps 697 mmHg 44%
    11:00 +34°C° 0 mm 3 mps 696 mmHg 40%
    12:00 +35°C° 0 mm 4 mps 696 mmHg 37%
    13:00 +36°C° 0 mm 4 mps 696 mmHg 33%
    14:00 +36°C° 0 mm 4 mps 696 mmHg 32%
    15:00 +37°C° 0 mm 4 mps 696 mmHg 31%
    16:00 +37°C° 0 mm 4 mps 695 mmHg 30%
    17:00 +36°C° 0 mm 3 mps 696 mmHg 32%
    18:00 +35°C° 0 mm 2 mps 696 mmHg 34%
    19:00 +33°C° 0 mm 1 mps 696 mmHg 36%
    20:00 +34°C° 0 mm 2 mps 697 mmHg 37%
    21:00 +32°C° 0 mm 2 mps 697 mmHg 38%
    22:00 +32°C° 0 mm 2 mps 697 mmHg 39%
    23:00 +31°C° 0 mm 2 mps 697 mmHg 41%
    Show more